PWSweather.com
Personal Weather Stations
Station Observations
KVACHEST22
Carter's Mill, Chesterfield, VA 23838

Carter's MillChesterfield, VA 23838

Lat: 37.342658, Lon: -77.646073

Elevation: 282

Station Type: Oregon Scientific WMR88A

http://www.sowersnet.com/weatherstation/

Latest ConditionsUpdated 7:14:39 AM EDT Friday, Oct 24, 2014
Currently Today's Max Today's Min Today's Average
Temperature -5537.2°C 0.0°F-17.8°C 0.0°F-17.8°C 0.0°F-17.8°C
Dew Point -5537.2°C 0.0°F-17.8°C 0.0°F-17.8°C 0.0°F-17.8°C
Winds - N16091.8 kmh N Calm Calm - Calm Calm
Wind Gusts -- -- - -
Humidity - 0% 0% 0%
Pressure 29.77 in1008.1 mb 29.77 in1008.1 mb 29.68 in1005.1 mb -
Hour Temp Dew Point Humidity Winds Wind Gusts Pressure Precip Precip Rate Daily Precip Total
07:14 AM -5537.2°C -5537.2°C - - N16091.8 kmh N -- 29.77 in1008.1 mb 0.00 in0.0 mm 0.00 in/hr0.0 mm/hr 0.00 in0.0 mm
07:09 AM -5537.2°C -5537.2°C - - N16091.8 kmh N -- 29.77 in1008.1 mb 0.00 in0.0 mm 0.00 in/hr0.0 mm/hr 0.00 in0.0 mm
07:04 AM -5537.2°C -5537.2°C - - N16091.8 kmh N -- 29.77 in1008.1 mb 0.00 in0.0 mm 0.00 in/hr0.0 mm/hr 0.00 in0.0 mm
06:59 AM -5537.2°C -5537.2°C - - N16091.8 kmh N -- 29.77 in1008.1 mb 0.00 in0.0 mm 0.00 in/hr0.0 mm/hr 0.00 in0.0 mm
06:54 AM -5537.2°C -5537.2°C - - N16091.8 kmh N -- 29.77 in1008.1 mb 0.00 in0.0 mm 0.00 in/hr0.0 mm/hr 0.00 in0.0 mm
06:49 AM -5537.2°C -5537.2°C - - N16091.8 kmh N -- 29.77 in1008.1 mb 0.00 in0.0 mm 0.00 in/hr0.0 mm/hr 0.00 in0.0 mm
06:44 AM -5537.2°C -5537.2°C - - N16091.8 kmh N -- 29.77 in1008.1 mb 0.00 in0.0 mm 0.00 in/hr0.0 mm/hr 0.00 in0.0 mm
06:39 AM -5537.2°C -5537.2°C - - N16091.8 kmh N -- 29.77 in1008.1 mb 0.00 in0.0 mm 0.00 in/hr0.0 mm/hr 0.00 in0.0 mm
06:34 AM -5537.2°C -5537.2°C - - N16091.8 kmh N -- 29.77 in1008.1 mb 0.00 in0.0 mm 0.00 in/hr0.0 mm/hr 0.00 in0.0 mm
06:29 AM -5537.2°C -5537.2°C - - N16091.8 kmh N -- 29.77 in1008.1 mb 0.00 in0.0 mm 0.00 in/hr0.0 mm/hr 0.00 in0.0 mm
06:24 AM -5537.2°C -5537.2°C - - N16091.8 kmh N -- 29.77 in1008.1 mb 0.00 in0.0 mm 0.00 in/hr0.0 mm/hr 0.00 in0.0 mm
06:19 AM -5537.2°C -5537.2°C - - N16091.8 kmh N -- 29.77 in1008.1 mb 0.00 in0.0 mm 0.00 in/hr0.0 mm/hr 0.00 in0.0 mm
06:14 AM -5537.2°C -5537.2°C - - N16091.8 kmh N -- 29.77 in1008.1 mb 0.00 in0.0 mm 0.00 in/hr0.0 mm/hr 0.00 in0.0 mm
06:09 AM -5537.2°C -5537.2°C - - N16091.8 kmh N -- 29.75 in1007.5 mb 0.00 in0.0 mm 0.00 in/hr0.0 mm/hr 0.00 in0.0 mm
06:04 AM -5537.2°C -5537.2°C - - N16091.8 kmh N -- 29.74 in1007.1 mb 0.00 in0.0 mm 0.00 in/hr0.0 mm/hr 0.00 in0.0 mm
05:59 AM -5537.2°C -5537.2°C - - N16091.8 kmh N -- 29.74 in1007.1 mb 0.00 in0.0 mm 0.00 in/hr0.0 mm/hr 0.00 in0.0 mm
05:54 AM -5537.2°C -5537.2°C - - N16091.8 kmh N -- 29.74 in1007.1 mb 0.00 in0.0 mm 0.00 in/hr0.0 mm/hr 0.00 in0.0 mm
05:49 AM -5537.2°C -5537.2°C - - N16091.8 kmh N -- 29.74 in1007.1 mb 0.00 in0.0 mm 0.00 in/hr0.0 mm/hr 0.00 in0.0 mm
05:44 AM -5537.2°C -5537.2°C - - N16091.8 kmh N -- 29.74 in1007.1 mb 0.00 in0.0 mm 0.00 in/hr0.0 mm/hr 0.00 in0.0 mm
05:39 AM -5537.2°C -5537.2°C - - N16091.8 kmh N -- 29.74 in1007.1 mb 0.00 in0.0 mm 0.00 in/hr0.0 mm/hr 0.00 in0.0 mm
05:34 AM -5537.2°C -5537.2°C - - N16091.8 kmh N -- 29.74 in1007.1 mb 0.00 in0.0 mm 0.00 in/hr0.0 mm/hr 0.00 in0.0 mm
05:29 AM -5537.2°C -5537.2°C - - N16091.8 kmh N -- 29.74 in1007.1 mb 0.00 in0.0 mm 0.00 in/hr0.0 mm/hr 0.00 in0.0 mm
05:24 AM -5537.2°C -5537.2°C - - N16091.8 kmh N -- 29.73 in1006.8 mb 0.00 in0.0 mm 0.00 in/hr0.0 mm/hr 0.00 in0.0 mm
05:19 AM -5537.2°C -5537.2°C - - N16091.8 kmh N -- 29.71 in1006.1 mb 0.00 in0.0 mm 0.00 in/hr0.0 mm/hr 0.00 in0.0 mm
05:14 AM -5537.2°C -5537.2°C - - N16091.8 kmh N -- 29.71 in1006.1 mb 0.00 in0.0 mm 0.00 in/hr0.0 mm/hr 0.00 in0.0 mm
05:09 AM -5537.2°C -5537.2°C - - N16091.8 kmh N -- 29.71 in1006.1 mb 0.00 in0.0 mm 0.00 in/hr0.0 mm/hr 0.00 in0.0 mm
05:04 AM -5537.2°C -5537.2°C - - N16091.8 kmh N -- 29.71 in1006.1 mb 0.00 in0.0 mm 0.00 in/hr0.0 mm/hr 0.00 in0.0 mm
04:59 AM -5537.2°C -5537.2°C - - N16091.8 kmh N -- 29.71 in1006.1 mb 0.00 in0.0 mm 0.00 in/hr0.0 mm/hr 0.00 in0.0 mm
04:54 AM -5537.2°C -5537.2°C - - N16091.8 kmh N -- 29.71 in1006.1 mb 0.00 in0.0 mm 0.00 in/hr0.0 mm/hr 0.00 in0.0 mm
04:49 AM -5537.2°C -5537.2°C - - N16091.8 kmh N -- 29.71 in1006.1 mb 0.00 in0.0 mm 0.00 in/hr0.0 mm/hr 0.00 in0.0 mm
04:44 AM -5537.2°C -5537.2°C - - N16091.8 kmh N -- 29.71 in1006.1 mb 0.00 in0.0 mm 0.00 in/hr0.0 mm/hr 0.00 in0.0 mm
04:39 AM -5537.2°C -5537.2°C - - N16091.8 kmh N -- 29.71 in1006.1 mb 0.00 in0.0 mm 0.00 in/hr0.0 mm/hr 0.00 in0.0 mm
04:34 AM -5537.2°C -5537.2°C - - N16091.8 kmh N -- 29.71 in1006.1 mb 0.00 in0.0 mm 0.00 in/hr0.0 mm/hr 0.00 in0.0 mm
04:29 AM -5537.2°C -5537.2°C - - N16091.8 kmh N -- 29.71 in1006.1 mb 0.00 in0.0 mm 0.00 in/hr0.0 mm/hr 0.00 in0.0 mm
04:24 AM -5537.2°C -5537.2°C - - N16091.8 kmh N -- 29.71 in1006.1 mb 0.00 in0.0 mm 0.00 in/hr0.0 mm/hr 0.00 in0.0 mm
04:19 AM -5537.2°C -5537.2°C - - N16091.8 kmh N -- 29.71 in1006.1 mb 0.00 in0.0 mm 0.00 in/hr0.0 mm/hr 0.00 in0.0 mm
04:14 AM -5537.2°C -5537.2°C - - N16091.8 kmh N -- 29.71 in1006.1 mb 0.00 in0.0 mm 0.00 in/hr0.0 mm/hr 0.00 in0.0 mm
04:09 AM -5537.2°C -5537.2°C - - N16091.8 kmh N -- 29.71 in1006.1 mb 0.00 in0.0 mm 0.00 in/hr0.0 mm/hr 0.00 in0.0 mm
04:04 AM -5537.2°C -5537.2°C - - N16091.8 kmh N -- 29.71 in1006.1 mb 0.00 in0.0 mm 0.00 in/hr0.0 mm/hr 0.00 in0.0 mm
03:59 AM -5537.2°C -5537.2°C - - N16091.8 kmh N -- 29.71 in1006.1 mb 0.00 in0.0 mm 0.00 in/hr0.0 mm/hr 0.00 in0.0 mm
03:54 AM -5537.2°C -5537.2°C - - N16091.8 kmh N -- 29.71 in1006.1 mb 0.00 in0.0 mm 0.00 in/hr0.0 mm/hr 0.00 in0.0 mm
03:49 AM -5537.2°C -5537.2°C - - N16091.8 kmh N -- 29.71 in1006.1 mb 0.00 in0.0 mm 0.00 in/hr0.0 mm/hr 0.00 in0.0 mm
03:44 AM -5537.2°C -5537.2°C - - N16091.8 kmh N -- 29.71 in1006.1 mb 0.00 in0.0 mm 0.00 in/hr0.0 mm/hr 0.00 in0.0 mm
03:39 AM -5537.2°C -5537.2°C - - N16091.8 kmh N -- 29.71 in1006.1 mb 0.00 in0.0 mm 0.00 in/hr0.0 mm/hr 0.00 in0.0 mm
03:34 AM -5537.2°C -5537.2°C - - N16091.8 kmh N -- 29.71 in1006.1 mb 0.00 in0.0 mm 0.00 in/hr0.0 mm/hr 0.00 in0.0 mm
03:29 AM -5537.2°C -5537.2°C - - N16091.8 kmh N -- 29.71 in1006.1 mb 0.00 in0.0 mm 0.00 in/hr0.0 mm/hr 0.00 in0.0 mm
03:24 AM -5537.2°C -5537.2°C - - N16091.8 kmh N -- 29.71 in1006.1 mb 0.00 in0.0 mm 0.00 in/hr0.0 mm/hr 0.00 in0.0 mm
03:19 AM -5537.2°C -5537.2°C - - N16091.8 kmh N -- 29.71 in1006.1 mb 0.00 in0.0 mm 0.00 in/hr0.0 mm/hr 0.00 in0.0 mm
03:14 AM -5537.2°C -5537.2°C - - N16091.8 kmh N -- 29.71 in1006.1 mb 0.00 in0.0 mm 0.00 in/hr0.0 mm/hr 0.00 in0.0 mm
03:09 AM -5537.2°C -5537.2°C - - N16091.8 kmh N -- 29.71 in1006.1 mb 0.00 in0.0 mm 0.00 in/hr0.0 mm/hr 0.00 in0.0 mm
03:04 AM -5537.2°C -5537.2°C - - N16091.8 kmh N -- 29.71 in1006.1 mb 0.00 in0.0 mm 0.00 in/hr0.0 mm/hr 0.00 in0.0 mm
02:59 AM -5537.2°C -5537.2°C - - N16091.8 kmh N -- 29.71 in1006.1 mb 0.00 in0.0 mm 0.00 in/hr0.0 mm/hr 0.00 in0.0 mm
02:54 AM -5537.2°C -5537.2°C - - N16091.8 kmh N -- 29.70 in1005.8 mb 0.00 in0.0 mm 0.00 in/hr0.0 mm/hr 0.00 in0.0 mm
02:49 AM -5537.2°C -5537.2°C - - N16091.8 kmh N -- 29.68 in1005.1 mb 0.00 in0.0 mm 0.00 in/hr0.0 mm/hr 0.00 in0.0 mm
02:44 AM -5537.2°C -5537.2°C - - N16091.8 kmh N -- 29.68 in1005.1 mb 0.00 in0.0 mm 0.00 in/hr0.0 mm/hr 0.00 in0.0 mm
02:39 AM -5537.2°C -5537.2°C - - N16091.8 kmh N -- 29.70 in1005.8 mb 0.00 in0.0 mm 0.00 in/hr0.0 mm/hr 0.00 in0.0 mm
02:34 AM -5537.2°C -5537.2°C - - N16091.8 kmh N -- 29.71 in1006.1 mb 0.00 in0.0 mm 0.00 in/hr0.0 mm/hr 0.00 in0.0 mm
02:29 AM -5537.2°C -5537.2°C - - N16091.8 kmh N -- 29.71 in1006.1 mb 0.00 in0.0 mm 0.00 in/hr0.0 mm/hr 0.00 in0.0 mm
02:24 AM -5537.2°C -5537.2°C - - N16091.8 kmh N -- 29.71 in1006.1 mb 0.00 in0.0 mm 0.00 in/hr0.0 mm/hr 0.00 in0.0 mm
02:19 AM -5537.2°C -5537.2°C - - N16091.8 kmh N -- 29.71 in1006.1 mb 0.00 in0.0 mm 0.00 in/hr0.0 mm/hr 0.00 in0.0 mm
02:14 AM -5537.2°C -5537.2°C - - N16091.8 kmh N -- 29.71 in1006.1 mb 0.00 in0.0 mm 0.00 in/hr0.0 mm/hr 0.00 in0.0 mm
02:09 AM -5537.2°C -5537.2°C - - N16091.8 kmh N -- 29.71 in1006.1 mb 0.00 in0.0 mm 0.00 in/hr0.0 mm/hr 0.00 in0.0 mm
02:04 AM -5537.2°C -5537.2°C - - N16091.8 kmh N -- 29.71 in1006.1 mb 0.00 in0.0 mm 0.00 in/hr0.0 mm/hr 0.00 in0.0 mm
01:59 AM -5537.2°C -5537.2°C - - N16091.8 kmh N -- 29.71 in1006.1 mb 0.00 in0.0 mm 0.00 in/hr0.0 mm/hr 0.00 in0.0 mm
01:54 AM -5537.2°C -5537.2°C - - N16091.8 kmh N -- 29.71 in1006.1 mb 0.00 in0.0 mm 0.00 in/hr0.0 mm/hr 0.00 in0.0 mm
01:49 AM -5537.2°C -5537.2°C - - N16091.8 kmh N -- 29.71 in1006.1 mb 0.00 in0.0 mm 0.00 in/hr0.0 mm/hr 0.00 in0.0 mm
01:44 AM -5537.2°C -5537.2°C - - N16091.8 kmh N -- 29.71 in1006.1 mb 0.00 in0.0 mm 0.00 in/hr0.0 mm/hr 0.00 in0.0 mm
01:39 AM -5537.2°C -5537.2°C - - N16091.8 kmh N -- 29.71 in1006.1 mb 0.00 in0.0 mm 0.00 in/hr0.0 mm/hr 0.00 in0.0 mm
01:34 AM -5537.2°C -5537.2°C - - N16091.8 kmh N -- 29.71 in1006.1 mb 0.00 in0.0 mm 0.00 in/hr0.0 mm/hr 0.00 in0.0 mm
01:29 AM -5537.2°C -5537.2°C - - N16091.8 kmh N -- 29.71 in1006.1 mb 0.00 in0.0 mm 0.00 in/hr0.0 mm/hr 0.00 in0.0 mm
01:24 AM -5537.2°C -5537.2°C - - N16091.8 kmh N -- 29.71 in1006.1 mb 0.00 in0.0 mm 0.00 in/hr0.0 mm/hr 0.00 in0.0 mm
01:19 AM -5537.2°C -5537.2°C - - N16091.8 kmh N -- 29.71 in1006.1 mb 0.00 in0.0 mm 0.00 in/hr0.0 mm/hr 0.00 in0.0 mm
01:14 AM -5537.2°C -5537.2°C - - N16091.8 kmh N -- 29.71 in1006.1 mb 0.00 in0.0 mm 0.00 in/hr0.0 mm/hr 0.00 in0.0 mm
01:09 AM -5537.2°C -5537.2°C - - N16091.8 kmh N -- 29.71 in1006.1 mb 0.00 in0.0 mm 0.00 in/hr0.0 mm/hr 0.00 in0.0 mm
01:04 AM -5537.2°C -5537.2°C - - N16091.8 kmh N -- 29.71 in1006.1 mb 0.00 in0.0 mm 0.00 in/hr0.0 mm/hr 0.00 in0.0 mm
12:59 AM -5537.2°C -5537.2°C - - N16091.8 kmh N -- 29.71 in1006.1 mb 0.00 in0.0 mm 0.00 in/hr0.0 mm/hr 0.00 in0.0 mm
12:54 AM -5537.2°C -5537.2°C - - N16091.8 kmh N -- 29.71 in1006.1 mb 0.00 in0.0 mm 0.00 in/hr0.0 mm/hr 0.00 in0.0 mm
12:49 AM -5537.2°C -5537.2°C - - N16091.8 kmh N -- 29.71 in1006.1 mb 0.00 in0.0 mm 0.00 in/hr0.0 mm/hr 0.00 in0.0 mm
12:44 AM -5537.2°C -5537.2°C - - N16091.8 kmh N -- 29.71 in1006.1 mb 0.00 in0.0 mm 0.00 in/hr0.0 mm/hr 0.00 in0.0 mm
12:39 AM -5537.2°C -5537.2°C - - N16091.8 kmh N -- 29.71 in1006.1 mb 0.00 in0.0 mm 0.00 in/hr0.0 mm/hr 0.00 in0.0 mm
12:34 AM -5537.2°C -5537.2°C - - N16091.8 kmh N -- 29.71 in1006.1 mb 0.00 in0.0 mm 0.00 in/hr0.0 mm/hr 0.00 in0.0 mm
12:29 AM -5537.2°C -5537.2°C - - N16091.8 kmh N -- 29.71 in1006.1 mb 0.00 in0.0 mm 0.00 in/hr0.0 mm/hr 0.00 in0.0 mm
12:24 AM -5537.2°C -5537.2°C - - N16091.8 kmh N -- 29.71 in1006.1 mb 0.00 in0.0 mm 0.00 in/hr0.0 mm/hr 0.00 in0.0 mm
12:19 AM -5537.2°C -5537.2°C - - N16091.8 kmh N -- 29.71 in1006.1 mb 0.00 in0.0 mm 0.00 in/hr0.0 mm/hr 0.00 in0.0 mm
12:14 AM -5537.2°C -5537.2°C - - N16091.8 kmh N -- 29.71 in1006.1 mb 0.00 in0.0 mm 0.00 in/hr0.0 mm/hr 0.00 in0.0 mm
12:09 AM -5537.2°C -5537.2°C - - N16091.8 kmh N -- 29.71 in1006.1 mb 0.00 in0.0 mm 0.00 in/hr0.0 mm/hr 0.00 in0.0 mm
12:04 AM -5537.2°C -5537.2°C - - N16091.8 kmh N -- 29.71 in1006.1 mb 0.00 in0.0 mm 0.00 in/hr0.0 mm/hr 0.00 in0.0 mm